Location: AstroGeek's Observatory
(41.9520°N, 70.9880°W)
Time: 17:18:49
(UTC-04:00)

ISS - All Passes

Search period start: 02 September 2014 00:00
Search period end: 12 September 2014 00:00
Orbit: 413 x 419 km, 51.6° (Epoch: 02 September)

Date Brightness Start Highest point End Pass type
(mag) Time Alt. Az. Time Alt. Az. Time Alt. Az.
02 Sep - 09:48:46 10° SW 09:52:05 74° SE 09:55:24 10° ENE daylight
02 Sep - 11:26:21 10° WNW 11:29:06 23° NNW 11:31:50 10° NE daylight
02 Sep - 13:04:37 10° NW 13:06:42 15° N 13:08:48 10° NE daylight
02 Sep - 14:41:20 10° NW 14:44:15 27° NNE 14:47:10 10° E daylight
02 Sep - 16:17:53 10° WNW 16:21:08 50° SW 16:24:22 10° SE daylight
03 Sep - 09:00:26 10° SSW 09:03:35 41° SE 09:06:44 10° ENE daylight
03 Sep - 10:37:23 10° W 10:40:23 30° NNW 10:43:23 10° NE daylight
03 Sep - 12:15:46 10° NW 12:17:53 16° N 12:20:00 10° NE daylight
03 Sep - 13:52:52 10° NW 13:55:31 21° NNE 13:58:10 10° ENE daylight
03 Sep - 15:29:16 10° NW 15:32:36 89° SW 15:35:56 10° SE daylight
03 Sep - 17:08:08 10° WSW 17:08:50 11° SW 17:09:33 10° SW daylight
04 Sep - 08:12:23 10° S 08:15:07 24° SE 08:17:51 10° E daylight
04 Sep - 09:48:29 10° WSW 09:51:41 44° NNW 09:54:54 10° NE daylight
04 Sep - 11:26:47 10° NW 11:29:03 17° N 11:31:19 10° NE daylight
04 Sep - 13:04:20 10° NW 13:06:43 18° NNE 13:09:06 10° ENE daylight
04 Sep - 14:40:42 10° NW 14:44:00 55° NNE 14:47:16 10° ESE daylight
04 Sep - 16:18:04 10° W 16:20:27 18° SW 16:22:50 10° S daylight
05 Sep - 07:24:52 10° SSE 07:26:41 14° SE 07:28:30 10° E daylight
05 Sep - 08:59:43 10° WSW 09:03:01 71° NNW 09:06:21 10° NE daylight
05 Sep - 10:37:42 10° WNW 10:40:12 19° NNW 10:42:43 10° NE daylight
05 Sep - 12:15:41 10° NW 12:17:52 16° N 12:20:02 10° NE daylight
05 Sep - 13:52:11 10° NW 13:55:18 36° NNE 13:58:25 10° E daylight
05 Sep - 15:28:59 10° WNW 15:31:59 31° SW 15:34:58 10° SSE daylight
06 Sep - 08:11:06 10° SW 08:14:24 68° SE 08:17:43 10° ENE daylight
06 Sep - 09:48:36 10° WNW 09:51:23 24° NNW 09:54:10 10° NE daylight
06 Sep - 11:26:53 10° NW 11:28:58 15° N 11:31:03 10° NE daylight
06 Sep - 13:03:39 10° NW 13:06:32 26° NNE 13:09:24 10° E daylight
06 Sep - 14:40:10 10° WNW 14:43:26 56° SW 14:46:41 10° SE daylight
07 Sep - 07:22:43 10° SSW 07:25:49 37° SE 07:28:56 10° ENE daylight
07 Sep - 08:59:32 10° W 09:02:34 32° NNW 09:05:37 10° NE daylight
07 Sep - 10:37:55 10° NW 10:40:03 16° N 10:42:11 10° NE daylight
07 Sep - 12:15:05 10° NW 12:17:41 21° NNE 12:20:17 10° ENE daylight
07 Sep - 13:51:28 10° NW 13:54:48 84° NE 13:58:07 10° ESE daylight
07 Sep - 15:29:50 10° WSW 15:31:04 12° SW 15:32:17 10° SSW daylight
08 Sep - 06:34:38 10° S 06:37:16 22° SE 06:39:54 10° E daylight
08 Sep - 08:10:33 10° WSW 08:13:47 47° NNW 08:17:02 10° NE daylight
08 Sep - 09:48:48 10° NW 09:51:07 17° N 09:53:25 10° NE daylight
08 Sep - 11:26:26 10° NW 11:28:47 18° N 11:31:07 10° NE daylight
08 Sep - 13:02:49 10° NW 13:06:05 51° NNE 13:09:20 10° ESE daylight
08 Sep - 14:40:03 10° W 14:42:34 20° SW 14:45:05 10° S daylight
09 Sep - 05:47:12 10° SSE 05:48:45 13° SE 05:50:17 10° ESE visible
09 Sep - 07:21:43 10° WSW 07:25:02 78° NW 07:28:23 10° NE daylight
09 Sep - 08:59:37 10° WNW 09:02:11 20° NNW 09:04:45 10° NE daylight
09 Sep - 10:37:40 10° NW 10:39:49 16° N 10:41:58 10° NE daylight
09 Sep - 12:14:12 10° NW 12:17:16 34° NNE 12:20:21 10° E daylight
09 Sep - 13:50:56 10° WNW 13:54:00 34° SW 13:57:03 10° SSE daylight
10 Sep - 06:33:03 10° SW 06:36:19 61° SE 06:39:37 10° ENE daylight
10 Sep - 08:10:25 10° WNW 08:13:15 25° NNW 08:16:06 10° NE daylight
10 Sep - 09:48:45 10° NW 09:50:49 15° N 09:52:54 10° NE daylight
10 Sep - 11:25:34 10° NW 11:28:24 25° NNE 11:31:13 10° ENE daylight
10 Sep - 13:02:02 10° WNW 13:05:20 62° SW 13:08:37 10° SE daylight
11 Sep - 05:44:36 10° SSW 05:47:39 34° SE 05:50:42 10° ENE visible
11 Sep - 07:21:17 10° W 07:24:21 34° NNW 07:27:27 10° NE daylight
11 Sep - 08:59:39 10° NW 09:01:48 16° N 09:03:58 10° NE daylight
11 Sep - 10:36:53 10° NW 10:39:27 20° NNE 10:42:00 10° ENE daylight
11 Sep - 12:13:15 10° NW 12:16:35 76° NE 12:19:54 10° ESE daylight
11 Sep - 13:51:17 10° WSW 13:52:53 13° SW 13:54:28 10° SSW daylight
